EHI
0 0 0 0 0 0 0 0 0 0 0 0 0 0 0 0 0 0 0 0 0 0 0 0 0 0 0 0 0 0 0 0 0 0 0 0 0 0 0 0 0 0 0 0
0 0 0 0 0 0 0 0 0 0 0 0 0 0 0 0 0 0 0 0 0 0 0 0 0 0 0 0 0 0 0 0 0 0 0 0 0 0 0 0 0 0 0 0
0 0 0 0 0 0 0 0 0 0 0 0 0 0 0 0 0 0 0 0 0 0 0 0 0 0 0 0 0 0 0 0 0 0 0 0 0 0 0 0 0 0 0 0
0 0 0 0 0 0 0 0 0 0 0 0 0 0 0 0 0 0 0 0 0 0 0 0 0 0 0 0 0 0 0 0 0 0 0 0 0 0 0 0 0 0 0 0
0 0 0 0 0 0 0 0 0 0 0 0 0 0 0 0 0 0 0 0 0 0 0 0 0 0 0 0 0 0 0 0 0 0 0 0 0 0 0 0 0 0 0 0
0 0 0 0 0 0 0 0 0 0 0 0 0 0 0 0 0 0 0 0 0 0 0 0 0 0 0 0 0 0 0 0 0 0 0 0 0 0 0 0 0 0 0 0
0 0 0 0 0 0 0 0 0 0 0 0 0 0 0 0 0 0 0 0 0 0 0 0 0 0 0 0 0 0 0 0 0 0 0 0 0 0 0 0 0 0 0 0
0 0 0 0 0 0 0 0 0 0 0 0 0 0 0 0 0 0 0 0 0 0 0 0 0 0 0 0 0 0 0 0 0 0 0 0 0 0 0 0 0 0 0 0
0 0 0 0 0 0 0 0 0 0 0 0 0 0 0 0 0 0 0 0 0 0 0 0 0 0 0 0 0 0 0 0 0 0 0 0 0 0 0 0 0 0 0 0
0 0 0 0 0 0 0 0 0 0 0 0 0 0 0 0 0 0 0 0 0 0 0 0 0 0 0 0 0 0 0 0 0 0 0 0 0 0 0 0 0 0 0 0
0 0 0 0 0 0 0 0 0 0 0 0 0 0 0 0 0 0 0 0 0 0 0 0 0 0 0 0 0 0 0 0 0 0 0 0 0 0 0 0 0 0 0 0
0 0 0 0 0 0 0 0 0 0 0 0 0 0 0 0 0 0 0 0 0 0 0 0 0 0 0 0 0 0 0 0 0 0 0 0 0 0 0 0 0 0 0 0
0 0 0 0 0 0 0 0 0 0 0 0 0 0 0 0 0 0 0 0 0 0 0 0 0 0 0 0 0 0 0 0 0 0 0 0 0 0 0 0 0 0 0 0
0 0 0 0 0 0 0 0 0 0 0 0 0 0 0 0 0 0 0 0 0 0 0 0 0 0 0 0 0 0 0 0 0 0 0 0 0 0 0 0 0 0 0 0
0 0 0 0 0 0 0 0 0 0 0 0 0 0 0 0 0 0 0 0 0 0 0 0 0 0 0 0 0 0 0 0 0 0 0 0 0 0 0 0 0 0 0 0
0 0 0 0 0 0 0 0 0 0 0 0 0 0 0 0 0 0 0 0 0 0 0 0 0 0 0 0 0 0 0 0 0 0 0 0 0 0 0 0 0 0 0 0
0 0 0 0 0 0 0 0 0 0 0 0 0 0 0 0 0 0 0 0 0 0 0 0 0 0 0 0 0 0 0 0 0 0 0 0 0 0 0 0 0 0 0 0
0 0 0 0 0 0 0 0 0 0 0 0 0 0 0 0 0 0 0 0 0 0 0 0 0 0 0 0 0 0 0 0 0 0 0 0 0 0 0 0 0 0 0 0
0 0 0 0 0 0 0 0 0 0 0 0 0 0 0 0 0 0 0 0 0 0 0 0 0 0 0 0 0 0 0 0 0 0 0 0 0 0 0 0 0 0 0 0
0 0 0 0 0 0 0 0 0 0 0 0 0 0 0 0 0 0 0 0 0 0 0 0 0 0 0 0 0 0 0 0 0 0 0 0 0 0 0 0 0 0 0 0
0 0 0 0 0 0 0 0 0 0 0 0 0 0 0 0 0 0 0 0 0 0 0 0 0 0 0 0 0 0 0 0 0 0 0 0 0 0 0 0 0 0 0 0
0 0 0 0 0 0 0 0 0 0 0 0 0 0 0 0 0 0 0 0 0 0 0 0 0 0 0 0 0 0 0 0 0 0 0 0 0 0 0 0 0 0 0 0
0 0 0 0 0 0 0 0 0 0 0 0 0 0 0 0 0 0 0 0 0 0 0 0 0 0 0 0 0 0 0 0 0 0 0 0 0 0 0 0 0 0 0 0
0 0 0 0 0 0 0 0 0 0 0 0 0 0 0 0 0 0 0 0 0 0 0 0 0 0 0 0 0 0 0 0 0 0 0 0 0 0 0 0 0 0 0 0
0 0 0 0 0 0 0 0 0 0 0 0 0 0 0 0 0 0 0 0 0 0 0 0 0 0 0 0 0 0 0 0 0 0 0 0 0 0 0 0 0 0 0 0
0 0 0 0 0 0 0 0 0 0 0 0 0 0 0 0 0 0 0 0 0 0 0 0 0 0 0 0 0 0 0 0 0 0 0 0 0 0 0 0 0 0 0 0
0 0 0 0 0 0 0 0 0 0 0 0 0 0 0 0 0 0 0 0 0 0 0 0 0 0 0 0 0 0 0 0 0 0 0 0 0 0 0 0 0 0 0 0
Wind_Speed
6 5 5 6 7 8 10 10 10 10 10 10 8 7 6 6 6 7 8 9 9 10 9 9 9 8 7 6 6 5 4 3 2 2 1 2 2 2 3 4 4 4 4 3
7 6 7 8 8 9 11 11 11 12 12 9 7 6 6 7 7 9 9 9 10 10 10 10 9 8 7 7 6 5 4 3 2 2 2 2 2 3 3 3 4 3 3 4
7 4 7 9 8 9 8 8 10 11 10 8 7 6 7 6 7 9 9 9 10 10 10 10 10 9 9 8 7 6 5 3 3 3 2 2 2 2 3 3 3 3 3 3
7 7 9 3 1 5 8 8 8 9 9 9 8 7 6 6 7 8 8 9 9 9 9 9 9 9 8 7 7 6 4 4 3 3 2 2 2 2 3 3 2 3 3 4
6 8 8 6 4 4 6 6 5 6 7 7 5 4 5 4 5 5 6 7 8 8 9 9 9 9 8 8 7 6 4 4 3 3 2 2 2 2 3 3 2 3 2 3
7 8 8 4 2 1 5 6 3 5 6 5 3 4 1 1 3 4 5 6 7 8 9 9 9 9 9 8 7 6 4 3 3 2 2 1 2 2 2 2 3 3 2 2
10 10 7 3 1 3 6 3 7 6 6 4 4 5 4 1 1 3 5 6 8 9 8 8 9 9 9 8 6 5 4 4 3 2 2 1 1 1 2 2 2 2 1 1
7 9 6 2 2 3 4 6 6 6 6 6 6 5 3 2 2 4 6 7 8 8 8 8 9 9 9 7 6 6 5 4 3 2 1 1 0 1 1 1 1 1 1 2
6 4 2 1 2 3 5 6 6 7 7 7 6 5 4 3 3 5 6 7 7 8 9 8 8 8 9 8 7 7 6 5 4 3 2 1 1 1 0 1 1 2 2 2
8 8 5 5 5 4 5 7 8 8 8 7 7 6 5 4 4 5 6 7 8 9 10 9 9 8 7 8 8 8 7 6 5 4 3 2 1 1 1 1 1 2 2 2
11 10 9 7 5 6 8 9 9 9 8 7 8 7 6 5 5 5 6 7 9 9 10 10 10 9 8 8 9 8 8 6 5 4 3 3 3 3 2 4 4 3 3 3
12 9 10 10 9 10 10 10 10 10 9 8 7 8 7 6 5 6 7 8 9 10 10 11 11 10 9 9 9 9 7 6 5 4 4 3 4 5 6 5 8 7 7 5
14 12 13 14 14 12 12 11 10 10 10 9 8 7 7 6 5 6 8 9 10 11 11 11 11 10 10 10 9 9 7 6 5 4 4 4 4 4 5 5 5 6 7 7
12 12 14 13 13 12 12 11 11 11 10 9 8 7 6 6 6 8 9 9 9 10 11 11 11 11 10 10 10 9 8 6 6 5 4 4 3 3 3 3 3 4 5 7
12 12 13 13 12 11 10 10 10 10 9 8 6 6 6 7 8 8 7 8 8 10 11 11 11 11 10 10 10 10 8 6 6 5 5 4 4 4 3 3 2 3 3 5
11 11 11 11 11 10 10 10 10 10 9 8 7 7 7 7 7 6 7 9 10 11 11 12 11 11 11 11 10 8 7 7 6 6 6 5 4 4 4 3 2 2 2 3
9 9 9 9 10 10 10 10 10 10 9 9 9 8 7 6 6 7 8 9 9 9 10 11 11 11 11 11 10 8 8 9 9 6 5 5 4 4 4 3 2 2 3 4
7 8 9 10 10 10 11 10 9 10 10 9 8 7 7 8 9 8 8 8 8 8 9 10 11 11 11 11 9 8 8 8 7 6 6 5 5 4 4 3 3 3 3 4
5 7 8 8 9 9 10 9 9 9 9 7 7 7 8 8 8 7 8 9 10 10 10 10 13 12 12 11 9 7 8 8 7 7 6 6 5 4 4 4 3 3 2 2
5 6 7 8 8 8 8 8 8 8 7 6 7 6 6 6 7 7 9 9 8 6 9 11 13 11 12 12 11 7 8 8 8 7 7 6 5 5 4 4 3 3 2 2
5 6 7 7 7 7 8 8 7 7 6 5 6 6 6 5 6 7 8 7 6 7 10 13 10 9 10 10 11 8 8 8 8 7 7 6 5 5 4 4 3 3 2 2
5 6 7 7 8 8 7 7 6 6 5 5 5 4 4 5 6 6 7 5 7 9 9 9 9 10 11 12 8 8 8 8 7 6 6 6 5 5 5 4 3 3 2 1
5 6 7 7 8 8 7 6 6 5 4 4 4 4 4 4 4 5 5 5 7 11 9 8 11 15 16 10 8 8 8 8 7 6 6 5 5 5 4 4 3 3 2 1
6 7 7 7 6 6 7 7 6 5 5 4 4 3 3 3 4 4 3 7 10 12 8 10 15 17 14 8 8 7 7 7 6 6 5 5 5 4 4 4 3 3 2 2
7 6 7 6 6 5 6 6 6 5 4 3 3 3 2 2 3 3 4 7 11 12 9 13 17 17 11 8 8 8 7 6 6 6 5 5 5 4 4 4 3 3 3 2
7 6 5 6 5 5 4 4 4 4 3 3 2 2 1 2 3 3 4 7 11 11 9 9 11 12 8 8 8 8 7 7 7 6 6 5 5 5 4 4 5 3 3 2
7 6 5 5 4 4 4 4 4 4 4 3 3 2 2 2 3 4 5 6 8 8 8 8 8 8 8 8 7 7 7 6 6 6 6 5 5 4 4 5 4 3 2 2
Wind_Direction
277 280 269 262 247 227 239 261 273 282 279 285 293 279 258 238 215 202 198 194 190 187 184 181 183 183 180 180 180 183 190 204 221 238 253 287 306 316 327 333 329 337 341 348
263 256 256 257 255 244 246 255 262 273 275 283 293 279 259 239 217 208 203 198 193 188 184 184 181 179 178 182 183 188 196 205 209 236 238 267 289 307 324 326 326 332 337 346
270 264 254 249 251 248 249 249 258 269 282 297 288 276 264 249 222 216 207 196 190 188 187 186 181 178 180 180 178 191 196 194 209 225 229 255 274 291 302 308 323 324 333 340
273 261 252 284 294 253 257 266 263 269 287 294 293 287 272 254 231 216 200 191 187 185 182 182 176 175 176 174 179 189 192 191 196 223 232 247 269 287 292 307 321 317 332 338
258 262 264 263 252 239 248 264 289 281 293 305 313 272 238 223 224 219 196 187 180 179 172 173 171 171 173 175 177 183 186 191 185 196 215 238 262 284 294 305 311 308 325 329
245 255 259 275 52 289 252 248 5 322 315 316 292 263 285 95 199 197 179 170 165 166 165 166 166 168 176 177 175 178 179 184 171 181 207 241 275 294 303 301 298 300 333 335
244 252 258 309 14 216 241 346 9 344 332 312 276 309 351 348 186 173 165 162 160 162 164 164 163 170 178 175 175 169 167 167 163 174 196 242 298 306 305 309 314 319 346 359
234 242 246 92 160 238 334 356 351 343 335 313 299 310 311 275 192 170 164 163 163 161 158 158 165 174 174 170 163 157 158 161 164 166 170 166 142 341 332 331 323 346 0 24
248 265 29 79 269 331 335 327 332 328 326 312 300 293 285 255 211 185 175 169 169 165 156 158 169 179 173 162 161 158 159 162 164 159 150 138 134 121 33 357 344 1 10 13
260 261 274 279 276 290 302 307 314 313 310 299 291 287 274 253 218 194 183 175 171 171 168 165 168 176 171 158 162 164 164 166 163 164 153 135 106 59 33 7 358 0 3 8
266 277 286 263 275 303 307 304 303 303 298 291 285 279 268 251 226 204 188 181 179 180 178 172 168 170 166 164 169 171 170 170 167 162 152 134 108 56 42 50 27 4 3 1
267 279 281 289 304 306 301 298 300 300 296 291 277 271 264 251 227 206 194 186 185 186 183 176 172 171 168 171 178 178 174 172 168 162 156 155 140 116 73 69 68 58 38 14
272 284 285 288 293 293 292 293 294 288 285 285 278 267 259 248 226 208 199 194 192 188 185 178 173 174 171 173 181 182 176 170 166 166 162 165 163 158 142 128 109 78 62 51
269 275 275 278 285 292 291 291 289 285 281 278 273 264 253 243 225 211 205 199 193 187 183 179 176 176 172 173 176 179 174 164 165 163 164 164 162 162 160 157 144 122 95 70
265 266 272 281 285 287 289 289 287 284 284 280 269 255 243 234 225 217 207 192 186 186 183 180 179 174 169 171 173 172 169 165 164 157 157 154 153 151 144 141 131 120 113 101
272 271 270 272 279 287 290 288 285 285 284 279 271 259 248 241 231 213 196 187 187 189 185 183 181 172 168 169 167 164 159 150 156 158 155 153 153 150 145 141 131 113 91 76
267 270 275 280 285 289 290 287 285 286 282 277 272 265 254 237 221 206 197 194 196 192 186 183 176 166 168 169 166 161 156 154 161 162 157 155 154 152 148 145 133 111 86 64
266 274 279 284 288 291 292 292 289 285 280 278 275 260 241 226 216 207 196 188 187 187 186 179 168 164 167 168 166 161 159 159 164 162 158 157 154 154 151 147 141 132 119 115
280 285 289 289 291 291 292 295 294 290 284 277 264 249 238 230 220 204 189 184 185 186 182 172 162 166 165 164 162 163 162 160 160 159 156 151 162 160 158 156 150 142 137 131
293 298 302 302 302 300 298 299 299 293 288 279 263 248 237 226 211 197 190 192 193 186 171 166 168 169 165 163 166 166 165 164 162 161 161 164 165 162 160 156 154 152 149 143
307 309 308 309 311 310 307 303 300 295 291 278 261 246 235 221 203 193 190 192 182 170 164 163 169 166 164 159 166 167 167 166 166 167 166 167 165 164 164 163 161 162 159 153
310 311 311 312 312 313 315 311 305 300 296 285 272 254 229 209 197 197 199 192 168 165 164 167 168 160 158 157 164 163 166 166 167 168 169 170 170 170 170 169 169 169 175 179
305 303 304 305 306 309 312 315 315 308 299 290 276 255 231 209 195 192 191 177 164 168 169 165 157 154 157 162 162 164 167 169 169 170 171 173 175 175 174 177 180 182 192 201
307 308 306 305 306 307 312 320 323 317 308 301 285 264 233 201 198 202 185 161 166 167 167 156 155 159 163 166 163 165 169 170 170 172 172 175 177 178 181 185 191 195 202 219
295 299 304 305 304 305 309 313 315 316 312 304 293 271 234 210 202 187 175 169 169 168 164 164 166 167 169 168 166 168 169 171 171 171 175 178 180 185 191 195 200 205 213 226
288 290 292 293 296 295 294 294 295 299 300 298 293 272 226 192 180 174 174 173 170 167 165 164 169 172 172 170 169 170 171 170 174 180 183 185 189 192 196 199 204 209 216 224
282 283 283 285 286 285 283 283 285 286 286 283 279 262 227 197 178 173 172 170 166 167 168 168 169 170 169 169 172 174 176 177 179 182 185 188 190 193 195 198 200 201 205 221